Flag for Thailand Weather past 2 weeks in Phuket, Thailand

Now
86 °F

Broken clouds.


Feels Like: 95 °F
Forecast: 81 / 86 °F
Wind: 9 mph from East

Location: Phuket Airport

Current Time: Oct 21, 2014 at 12:28:01 PM

Latest Report: Oct 21, 2014 at 12:00 PM


Visibility: 4 mi

Pressure: 29.92 "Hg

Humidity: 70%

Dew point: 75 °F

Location of PhuketLocation

Historic Weather in Phuket — Graph

°F

Phuket temperature yesterday

Maximum temperature yesterday: 84 °F (at 12:00 PM)
Minimum temperature yesterday: 75 °F (at 12:00 AM)
Average temperature yesterday: 80 °F

Past Weeks' High & Low Weather Summary

 TemperatureHumidityPressure
High90 °F (Oct 10, 11:30 AM)94% (Oct 7, 3:00 AM)29.95 "Hg (Oct 7, 3:00 AM)
Low73 °F (Oct 13, 7:00 PM)52% (Oct 11, 11:30 AM)29.74 "Hg (Oct 6, 2:30 PM)
Average80 °F80%29.84 "Hg
* Reported Oct 6 11:00 AM — Oct 21 11:30 AM, Phuket, Weather by CustomWeather, © 2014

Note: Actual official high and low records may vary slightly from our data, if they occured in-between our weather recording intervals... More about our weather records

Advertising

Phuket weather history for previous 24 hours

 ConditionsComfort  
Time TempWeatherWind HumidityBarometerVisibility
11:30 AM
Oct 21
84 °FBroken clouds.10 mph74%29.92 "Hg4 mi
11:00 AM84 °FBroken clouds.10 mph74%29.95 "Hg4 mi
10:30 AM82 °FBroken clouds.10 mph79%29.95 "Hg4 mi
10:00 AM84 °FBroken clouds.10 mph74%29.95 "Hg4 mi
9:30 AM82 °FBroken clouds.10 mph79%29.95 "Hg5 mi
9:00 AM82 °FBroken clouds.8 mph79%29.95 "Hg5 mi
8:30 AM81 °FBroken clouds.9 mph84%29.92 "Hg5 mi
8:00 AM81 °FPartly sunny.5 mph84%29.92 "Hg4 mi
7:30 AM79 °FPartly sunny.No wind89%29.89 "Hg4 mi
7:00 AM77 °FPartly sunny.No wind94%29.89 "Hg4 mi
6:30 AM77 °FPartly sunny.No wind89%29.86 "Hg5 mi
6:00 AM77 °FPassing clouds.No wind89%29.86 "Hg5 mi
5:00 AM77 °FPassing clouds.2 mph94%29.86 "Hg5 mi
4:00 AM77 °FPartly cloudy.No wind89%29.86 "Hg5 mi
3:00 AM77 °FPartly cloudy.No wind89%29.86 "Hg5 mi
1:00 AM77 °FPartly cloudy.No wind89%29.89 "Hg5 mi
12:30 AM79 °FPartly cloudy.No wind84%29.89 "Hg5 mi
12:00 AM79 °FPartly cloudy.No wind89%29.89 "Hg5 mi
11:30 PM
Oct 20
79 °FPartly cloudy.10 mph89%29.92 "Hg5 mi
11:00 PM79 °FPartly cloudy.5 mph89%29.92 "Hg5 mi
10:30 PM79 °FPartly cloudy.5 mph89%29.89 "Hg5 mi
10:00 PM79 °FPartly cloudy.3 mph84%29.89 "Hg5 mi
9:30 PM79 °FPartly cloudy.3 mph89%29.89 "Hg5 mi
9:00 PM79 °FPartly cloudy.No wind89%29.86 "Hg5 mi
8:30 PM79 °FPartly cloudy.5 mph89%29.86 "Hg5 mi
8:00 PM79 °FPartly cloudy.No wind89%29.86 "Hg5 mi
7:30 PM79 °FPartly cloudy.No wind89%29.83 "Hg4 mi
7:00 PM81 °FPartly cloudy.No wind84%29.83 "Hg4 mi
6:30 PM81 °FPartly cloudy.5 mph79%29.83 "Hg4 mi
6:00 PM82 °FBroken clouds.2 mph74%29.80 "Hg6 mi
5:30 PM84 °FBroken clouds.2 mph74%29.80 "HgN/A
5:00 PM84 °FBroken clouds.5 mph70%29.80 "HgN/A
4:30 PM84 °FBroken clouds.6 mph70%29.77 "HgN/A
4:00 PM82 °FBroken clouds.No wind79%29.77 "HgN/A
3:30 PM82 °FBroken clouds.2 mph79%29.77 "Hg6 mi
3:00 PM84 °FRain. Broken clouds.5 mph74%29.77 "Hg4 mi
2:30 PM84 °FBroken clouds.3 mph74%29.80 "HgN/A
2:00 PM84 °FBroken clouds.3 mph70%29.80 "HgN/A
1:30 PM84 °FBroken clouds.3 mph70%29.80 "HgN/A
1:00 PM82 °FBroken clouds.3 mph79%29.83 "Hg6 mi
12:30 PM84 °FBroken clouds.3 mph74%29.83 "Hg6 mi
12:00 PM84 °FBroken clouds.6 mph74%29.86 "HgN/A
Weather by CustomWeather, © 2014

See weather overviewHow to use our weather pages